RH
11 11 14 17 19 21 23 23 25 27 27 27 28 28 30 30 35 43 46 50 55 61 68 76 91 94 87 90 92 92 92 93 95 99 100 98 94 90 89 89 91 91 91 91 87 84 83 81 77 72 71 73
10 10 12 16 18 21 24 24 25 28 28 30 31 29 35 42 50 57 58 59 60 63 70 75 82 85 88 92 92 94 92 91 94 97 99 97 92 89 87 87 88 87 87 91 90 86 85 85 80 72 73 75
10 10 12 17 19 21 23 24 25 28 28 31 31 31 41 54 63 66 64 64 65 66 74 80 80 78 83 89 91 94 95 95 98 98 99 96 94 93 91 89 90 89 88 91 91 87 86 86 84 76 71 71
11 11 13 17 21 22 24 25 27 28 28 30 31 32 41 58 74 80 74 70 68 69 75 80 81 81 83 88 90 92 94 97 99 99 98 95 95 96 94 92 92 94 93 93 93 91 90 88 87 80 71 68
11 12 14 18 22 24 25 26 28 29 29 30 30 31 37 53 74 86 86 82 76 71 72 73 78 82 84 88 90 91 94 98 99 99 97 95 95 95 93 93 94 96 94 94 94 95 94 92 90 86 78 71
12 13 16 20 23 25 27 28 29 29 29 30 31 32 35 44 59 76 88 91 86 79 75 74 78 84 84 86 87 90 93 98 101 98 96 97 96 94 93 94 96 95 91 90 93 95 97 97 94 93 90 82
15 16 19 22 24 26 27 28 30 30 30 30 31 33 35 41 51 65 82 90 92 88 80 77 81 85 84 83 85 87 88 95 100 99 97 97 97 94 91 92 94 93 89 90 94 94 95 97 96 95 93 88
17 19 22 24 25 27 28 29 30 31 31 30 32 33 35 42 49 56 66 76 86 90 88 86 86 86 85 85 87 87 89 94 99 100 99 97 96 94 92 91 91 91 90 91 94 95 94 92 92 91 88 84
21 22 24 25 27 28 30 30 31 31 32 31 31 32 34 43 51 55 56 59 69 81 89 92 94 94 91 90 91 90 92 96 98 98 98 97 94 93 95 93 90 90 90 90 93 96 95 93 88 83 79 78
24 25 26 26 28 30 31 32 32 32 33 32 32 32 34 40 47 52 54 52 53 65 75 80 89 95 94 92 92 92 94 96 96 96 96 94 92 92 92 93 91 90 89 89 92 95 94 95 92 84 78 76
23 24 26 28 29 29 31 32 33 33 33 33 32 34 35 35 37 44 50 48 47 55 63 69 78 88 92 91 91 90 93 95 95 94 93 90 89 89 89 92 94 92 91 89 91 95 94 93 93 88 82 78
19 20 22 25 27 29 29 30 31 32 33 34 33 33 34 35 37 42 45 43 46 50 54 62 69 78 83 85 87 89 92 95 97 96 92 88 86 86 88 92 95 94 92 90 92 96 95 94 94 91 87 82
16 17 18 20 22 24 26 28 28 29 30 32 34 34 34 36 38 41 44 44 49 50 51 54 58 68 75 75 78 83 89 93 95 95 90 86 85 85 86 88 90 91 88 88 92 94 95 94 94 93 91 88
15 16 17 18 18 18 20 22 25 26 27 29 31 33 33 35 38 41 44 46 48 50 50 48 49 58 67 70 71 74 82 85 86 88 85 83 85 87 85 84 86 84 82 85 90 91 92 93 93 93 91 91
17 17 17 17 17 17 17 17 19 21 23 25 27 29 31 34 38 42 46 48 50 50 49 46 47 51 56 63 67 68 73 76 78 79 79 79 85 89 86 83 84 82 79 81 87 88 88 90 91 93 92 90
19 19 18 18 18 18 18 17 17 17 18 20 22 25 27 30 34 42 51 56 56 56 53 50 50 50 49 53 61 68 70 70 72 74 75 79 84 88 88 85 84 83 81 81 87 88 87 87 89 92 92 88
18 18 19 19 19 20 20 20 19 18 17 17 17 19 23 27 28 36 51 57 58 59 57 55 55 53 50 51 58 70 73 71 72 72 72 80 86 87 87 88 86 83 81 82 88 91 90 87 86 87 87 86
19 19 19 18 19 20 20 21 21 20 20 18 17 17 18 23 26 31 41 50 55 59 58 57 59 57 55 56 60 67 72 73 76 75 72 77 87 90 88 89 90 87 83 82 87 93 93 91 88 86 84 84
20 20 21 21 20 21 20 21 21 22 22 21 20 19 18 19 23 29 35 41 46 53 57 59 59 59 59 62 63 64 66 69 74 76 74 74 81 88 90 92 95 94 89 87 89 93 96 94 90 88 86 84
15 16 18 20 21 22 22 22 23 22 23 22 21 21 21 20 20 25 32 38 39 43 50 56 60 61 61 64 66 65 65 67 73 76 75 74 75 80 83 87 94 96 93 91 89 92 97 96 93 90 88 87
10 11 12 14 16 18 20 21 23 24 24 25 24 23 22 22 21 21 25 33 38 40 42 49 62 68 68 72 73 70 68 69 72 75 77 78 77 79 79 80 85 88 89 90 88 89 94 96 95 93 90 87
9 10 10 11 12 14 16 17 19 21 23 25 26 26 25 24 23 22 22 25 30 36 40 47 61 68 72 78 79 73 72 77 79 76 77 81 82 86 89 86 84 84 83 86 85 84 88 93 94 93 91 88
9 9 10 11 11 12 13 15 16 17 18 19 21 24 26 27 26 26 25 24 24 27 34 44 55 63 68 74 78 75 75 82 89 83 77 80 84 90 98 95 92 93 88 85 83 79 81 86 90 92 90 89
8 8 8 8 8 9 10 12 13 15 15 16 17 18 20 23 26 28 28 28 27 26 28 34 44 55 64 68 72 75 76 80 85 84 80 80 82 86 94 95 93 96 97 95 89 83 83 83 86 91 90 89
8 7 7 7 7 7 8 8 9 11 12 13 13 14 15 17 20 23 26 29 31 31 30 31 36 48 59 63 68 73 75 77 79 81 81 81 81 82 86 89 90 92 97 101 96 90 91 90 89 91 90 90
10 9 8 9 10 10 10 9 8 9 9 10 10 10 11 13 14 16 19 23 27 30 32 33 34 44 55 60 66 73 76 79 80 80 80 81 81 80 82 85 89 95 98 100 99 94 93 95 96 94 94 95
12 12 12 11 11 12 11 10 10 9 9 10 10 9 9 9 10 11 13 16 20 24 28 32 32 37 48 57 62 68 75 83 86 82 78 79 80 78 79 83 87 95 100 100 99 98 96 95 97 97 96 97
12 13 14 14 13 13 12 12 11 10 10 10 10 10 10 9 9 9 10 11 14 17 21 26 30 31 36 47 56 61 67 77 88 89 80 74 73 72 75 80 84 89 96 100 100 100 100 97 97 97 95 95
12 14 16 18 18 17 16 16 16 14 12 12 11 11 11 11 10 10 9 9 10 13 15 18 25 29 31 35 45 53 58 64 77 91 91 80 73 71 72 75 79 84 90 97 100 99 100 100 99 98 96 95
13 14 18 20 20 20 19 18 18 16 13 13 13 13 13 13 13 12 11 10 9 9 11 13 16 23 28 30 34 43 51 54 62 79 89 88 87 84 82 80 79 81 86 91 98 100 99 100 100 99 98 97
15 16 19 22 22 21 21 21 19 17 15 14 14 14 14 14 14 14 13 12 12 10 10 10 12 15 20 26 29 32 39 45 52 64 72 77 88 93 94 94 89 85 85 88 95 100 100 100 100 99 99 99